contact: severine.martini@mio.osupytheas.fr, dominique.lefevre@mio.osupytheas.fr
Project:EMSO Ligure-ouest http://www.emso-fr.org/EMSO-France
Sensor Microcat Sea-Bird SBE37 SMP,  Serial 57510 
DOI : "https://doi.org/10.17882/97948" 
Title:EMSO Ligure Ouest : Data Bathybot capteur Microcat - deploiement 2023-04-28
Datetime,Profondeur,Latitude,Longitude,Temperature,Conductivite,Pression,Salinite
time,m,degree_north,degree_east,degree_C,S/m,db,PSU 
2023-11-26T00:00:49,2420,42.8014,5.9826,13.2981,4.38752,2453.424,36.4978
2023-11-26T00:03:49,2420,42.8014,5.9826,13.2980,4.38759,2453.438,36.4985
2023-11-26T00:06:49,2420,42.8014,5.9826,13.2984,4.38758,2453.483,36.4980
2023-11-26T00:09:49,2420,42.8014,5.9826,13.2980,4.38764,2453.446,36.4989
2023-11-26T00:12:49,2420,42.8014,5.9826,13.2980,4.38785,2453.424,36.5010
2023-11-26T00:15:49,2420,42.8014,5.9826,13.2982,4.38782,2453.446,36.5005
2023-11-26T00:18:49,2420,42.8014,5.9826,13.2980,4.38811,2453.424,36.5034
2023-11-26T00:21:49,2420,42.8014,5.9826,13.2981,4.38648,2453.446,36.4880
2023-11-26T00:24:49,2420,42.8014,5.9826,13.2982,4.38723,2453.424,36.4950
2023-11-26T00:27:49,2420,42.8014,5.9826,13.2978,4.38723,2453.424,36.4953
2023-11-26T00:30:49,2420,42.8014,5.9826,13.2979,4.38715,2453.424,36.4945
2023-11-26T00:33:49,2420,42.8014,5.9826,13.2982,4.38743,2453.424,36.4968
2023-11-26T00:36:49,2420,42.8014,5.9826,13.2980,4.38731,2453.446,36.4959
2023-11-26T00:39:49,2420,42.8014,5.9826,13.2983,4.38742,2453.424,36.4966
2023-11-26T00:42:49,2420,42.8014,5.9826,13.2979,4.38728,2453.424,36.4957
2023-11-26T00:45:49,2420,42.8014,5.9826,13.2985,4.38730,2453.446,36.4954
2023-11-26T00:48:49,2420,42.8014,5.9826,13.2982,4.38768,2453.446,36.4992
2023-11-26T00:51:49,2420,42.8014,5.9826,13.2981,4.38752,2453.446,36.4978
2023-11-26T00:54:49,2420,42.8014,5.9826,13.2978,4.38774,2453.483,36.5002
2023-11-26T00:57:49,2420,42.8014,5.9826,13.2979,4.38785,2453.469,36.5010
2023-11-26T01:00:49,2420,42.8014,5.9826,13.2982,4.38782,2453.454,36.5005
2023-11-26T01:03:49,2420,42.8014,5.9826,13.2981,4.38780,2453.469,36.5004
2023-11-26T01:06:49,2420,42.8014,5.9826,13.2980,4.38787,2453.446,36.5012
2023-11-26T01:09:49,2420,42.8014,5.9826,13.2979,4.38775,2453.446,36.5001
2023-11-26T01:12:49,2420,42.8014,5.9826,13.2984,4.38788,2453.446,36.5009
2023-11-26T01:15:49,2420,42.8014,5.9826,13.2982,4.38796,2453.446,36.5018
2023-11-26T01:18:49,2420,42.8014,5.9826,13.2982,4.38799,2453.469,36.5021
2023-11-26T01:21:49,2420,42.8014,5.9826,13.2980,4.38800,2453.469,36.5024
2023-11-26T01:24:50,2420,42.8014,5.9826,13.2980,4.38795,2453.469,36.5019
2023-11-26T01:27:49,2420,42.8014,5.9826,13.2980,4.38819,2453.454,36.5041
2023-11-26T01:30:49,2420,42.8014,5.9826,13.2983,4.38834,2453.469,36.5052
2023-11-26T01:33:49,2420,42.8014,5.9826,13.2985,4.38833,2453.477,36.5050
2023-11-26T01:36:49,2420,42.8014,5.9826,13.2981,4.38838,2453.469,36.5058
2023-11-26T01:39:49,2420,42.8014,5.9826,13.2985,4.38824,2453.446,36.5041
2023-11-26T01:42:49,2420,42.8014,5.9826,13.2979,4.38837,2453.446,36.5060
2023-11-26T01:45:49,2420,42.8014,5.9826,13.2979,4.38834,2453.469,36.5056
2023-11-26T01:48:49,2420,42.8014,5.9826,13.2978,4.38837,2453.469,36.5060
2023-11-26T01:51:49,2420,42.8014,5.9826,13.2977,4.38827,2453.491,36.5052
2023-11-26T01:54:49,2420,42.8014,5.9826,13.2981,4.38830,2453.491,36.5051
2023-11-26T01:57:49,2420,42.8014,5.9826,13.2982,4.38837,2453.469,36.5056
2023-11-26T02:00:49,2420,42.8014,5.9826,13.2979,4.38846,2453.469,36.5067
2023-11-26T02:03:49,2420,42.8014,5.9826,13.2980,4.38841,2453.491,36.5062
2023-11-26T02:06:49,2420,42.8014,5.9826,13.2981,4.38843,2453.491,36.5062
2023-11-26T02:09:49,2420,42.8014,5.9826,13.2983,4.38847,2453.514,36.5064
2023-11-26T02:12:49,2420,42.8014,5.9826,13.2983,4.38847,2453.537,36.5064
2023-11-26T02:15:49,2420,42.8014,5.9826,13.2982,4.38853,2453.514,36.5071
2023-11-26T02:18:49,2420,42.8014,5.9826,13.2978,4.38843,2453.491,36.5065
2023-11-26T02:21:49,2420,42.8014,5.9826,13.2984,4.38858,2453.491,36.5074
2023-11-26T02:24:49,2420,42.8014,5.9826,13.2981,4.38868,2453.499,36.5086
2023-11-26T02:27:49,2420,42.8014,5.9826,13.2981,4.38851,2453.514,36.5070
2023-11-26T02:30:49,2420,42.8014,5.9826,13.2977,4.38850,2453.537,36.5073
2023-11-26T02:33:49,2420,42.8014,5.9826,13.2982,4.38865,2453.491,36.5083
2023-11-26T02:36:49,2420,42.8014,5.9826,13.2983,4.38859,2453.506,36.5076
2023-11-26T02:39:49,2420,42.8014,5.9826,13.2979,4.38858,2453.537,36.5078
2023-11-26T02:42:49,2420,42.8014,5.9826,13.2983,4.38856,2453.522,36.5073
2023-11-26T02:45:49,2420,42.8014,5.9826,13.2981,4.38858,2453.559,36.5076
2023-11-26T02:48:49,2420,42.8014,5.9826,13.2982,4.38853,2453.544,36.5072
2023-11-26T02:51:49,2420,42.8014,5.9826,13.2981,4.38858,2453.551,36.5076
2023-11-26T02:54:50,2420,42.8014,5.9826,13.2982,4.38869,2453.559,36.5086
2023-11-26T02:57:49,2420,42.8014,5.9826,13.2980,4.38864,2453.522,36.5083
2023-11-26T03:00:49,2420,42.8014,5.9826,13.2983,4.38876,2453.582,36.5091
2023-11-26T03:03:49,2420,42.8014,5.9826,13.2982,4.38871,2453.537,36.5088
2023-11-26T03:06:49,2420,42.8014,5.9826,13.2979,4.38883,2453.582,36.5102
2023-11-26T03:09:49,2420,42.8014,5.9826,13.2979,4.38884,2453.582,36.5102
2023-11-26T03:12:49,2420,42.8014,5.9826,13.2981,4.38881,2453.582,36.5098
2023-11-26T03:15:49,2420,42.8014,5.9826,13.2982,4.38874,2453.544,36.5091
2023-11-26T03:18:49,2420,42.8014,5.9826,13.2979,4.38892,2453.559,36.5110
2023-11-26T03:21:49,2420,42.8014,5.9826,13.2982,4.38882,2453.582,36.5098
2023-11-26T03:24:49,2420,42.8014,5.9826,13.2982,4.38889,2453.582,36.5104
2023-11-26T03:27:49,2420,42.8014,5.9826,13.2980,4.38879,2453.582,36.5097
2023-11-26T03:30:49,2420,42.8014,5.9826,13.2982,4.38885,2453.604,36.5101
2023-11-26T03:33:49,2420,42.8014,5.9826,13.2981,4.38892,2453.582,36.5108
2023-11-26T03:36:49,2420,42.8014,5.9826,13.2979,4.38884,2453.582,36.5102
2023-11-26T03:39:49,2420,42.8014,5.9826,13.2978,4.38886,2453.627,36.5105
2023-11-26T03:42:49,2420,42.8014,5.9826,13.2979,4.38885,2453.627,36.5103
2023-11-26T03:45:49,2420,42.8014,5.9826,13.2978,4.38885,2453.604,36.5105
2023-11-26T03:48:49,2420,42.8014,5.9826,13.2982,4.38878,2453.627,36.5094
2023-11-26T03:51:49,2420,42.8014,5.9826,13.2982,4.38888,2453.604,36.5104
2023-11-26T03:54:50,2420,42.8014,5.9826,13.2982,4.38879,2453.627,36.5095
2023-11-26T03:57:49,2420,42.8014,5.9826,13.2978,4.38879,2453.604,36.5098
2023-11-26T04:00:49,2420,42.8014,5.9826,13.2982,4.38881,2453.627,36.5097
2023-11-26T04:03:49,2420,42.8014,5.9826,13.2982,4.38873,2453.649,36.5089
2023-11-26T04:06:49,2420,42.8014,5.9826,13.2978,4.38882,2453.649,36.5102
2023-11-26T04:09:49,2420,42.8014,5.9826,13.2983,4.38894,2453.672,36.5108
2023-11-26T04:12:49,2420,42.8014,5.9826,13.2982,4.38888,2453.649,36.5103
2023-11-26T04:15:49,2420,42.8014,5.9826,13.2982,4.38888,2453.612,36.5104
2023-11-26T04:18:49,2420,42.8014,5.9826,13.2977,4.38906,2453.649,36.5125
2023-11-26T04:21:49,2420,42.8014,5.9826,13.2981,4.38898,2453.672,36.5114
2023-11-26T04:24:49,2420,42.8014,5.9826,13.2982,4.38893,2453.649,36.5108
2023-11-26T04:27:49,2420,42.8014,5.9826,13.2983,4.38899,2453.649,36.5113
2023-11-26T04:30:49,2420,42.8014,5.9826,13.2982,4.38903,2453.649,36.5118
2023-11-26T04:33:49,2420,42.8014,5.9826,13.2980,4.38890,2453.657,36.5107
2023-11-26T04:36:49,2420,42.8014,5.9826,13.2982,4.38896,2453.672,36.5111
2023-11-26T04:39:49,2420,42.8014,5.9826,13.2977,4.38899,2453.672,36.5118
2023-11-26T04:42:49,2420,42.8014,5.9826,13.2985,4.38897,2453.680,36.5109
2023-11-26T04:45:49,2420,42.8014,5.9826,13.2983,4.38898,2453.657,36.5111
2023-11-26T04:48:49,2420,42.8014,5.9826,13.2980,4.38882,2453.649,36.5100
2023-11-26T04:51:49,2420,42.8014,5.9826,13.2980,4.38903,2453.695,36.5119
2023-11-26T04:54:49,2420,42.8014,5.9826,13.2978,4.38906,2453.672,36.5124
2023-11-26T04:57:49,2420,42.8014,5.9826,13.2979,4.38900,2453.672,36.5117
2023-11-26T05:00:49,2420,42.8014,5.9826,13.2982,4.38890,2453.717,36.5105
2023-11-26T05:03:49,2420,42.8014,5.9826,13.2978,4.38896,2453.717,36.5114
2023-11-26T05:06:49,2420,42.8014,5.9826,13.2978,4.38900,2453.695,36.5118
2023-11-26T05:09:49,2420,42.8014,5.9826,13.2980,4.38905,2453.672,36.5121
2023-11-26T05:12:49,2420,42.8014,5.9826,13.2979,4.38901,2453.717,36.5117
2023-11-26T05:15:49,2420,42.8014,5.9826,13.2980,4.38908,2453.709,36.5123
2023-11-26T05:18:49,2420,42.8014,5.9826,13.2979,4.38897,2453.717,36.5114
2023-11-26T05:21:49,2420,42.8014,5.9826,13.2978,4.38896,2453.695,36.5114
2023-11-26T05:24:49,2420,42.8014,5.9826,13.2978,4.38903,2453.740,36.5120
2023-11-26T05:27:49,2420,42.8014,5.9826,13.2977,4.38897,2453.695,36.5116
2023-11-26T05:30:49,2420,42.8014,5.9826,13.2974,4.38901,2453.725,36.5122
2023-11-26T05:33:49,2420,42.8014,5.9826,13.2977,4.38898,2453.740,36.5118
2023-11-26T05:36:49,2420,42.8014,5.9826,13.2973,4.38898,2453.717,36.5121
2023-11-26T05:39:49,2420,42.8014,5.9826,13.2975,4.38897,2453.702,36.5118
2023-11-26T05:42:49,2420,42.8014,5.9826,13.2975,4.38899,2453.717,36.5120
2023-11-26T05:45:49,2420,42.8014,5.9826,13.2976,4.38907,2453.702,36.5126
2023-11-26T05:48:49,2420,42.8014,5.9826,13.2973,4.38906,2453.717,36.5128
2023-11-26T05:51:49,2420,42.8014,5.9826,13.2975,4.38900,2453.740,36.5121
2023-11-26T05:54:49,2420,42.8014,5.9826,13.2972,4.38909,2453.740,36.5132
2023-11-26T05:57:49,2420,42.8014,5.9826,13.2975,4.38909,2453.717,36.5129
2023-11-26T06:00:49,2420,42.8014,5.9826,13.2975,4.38919,2453.777,36.5139
2023-11-26T06:03:49,2420,42.8014,5.9826,13.2974,4.38917,2453.740,36.5137
2023-11-26T06:06:49,2420,42.8014,5.9826,13.2975,4.38917,2453.762,36.5136
2023-11-26T06:09:49,2420,42.8014,5.9826,13.2970,4.38908,2453.754,36.5133
2023-11-26T06:12:49,2420,42.8014,5.9826,13.2970,4.38916,2453.740,36.5140
2023-11-26T06:15:49,2420,42.8014,5.9826,13.2974,4.38928,2453.740,36.5148
2023-11-26T06:18:49,2420,42.8014,5.9826,13.2973,4.38923,2453.725,36.5145
2023-11-26T06:21:49,2420,42.8014,5.9826,13.2971,4.38927,2453.740,36.5149
2023-11-26T06:24:49,2420,42.8014,5.9826,13.2974,4.38925,2453.740,36.5145
2023-11-26T06:27:49,2420,42.8014,5.9826,13.2971,4.38937,2453.740,36.5159
2023-11-26T06:30:49,2420,42.8014,5.9826,13.2970,4.38932,2453.717,36.5155
2023-11-26T06:33:49,2420,42.8014,5.9826,13.2973,4.38933,2453.740,36.5154
2023-11-26T06:36:49,2420,42.8014,5.9826,13.2970,4.38932,2453.740,36.5156
2023-11-26T06:39:49,2420,42.8014,5.9826,13.2972,4.38943,2453.740,36.5164
2023-11-26T06:42:49,2420,42.8014,5.9826,13.2971,4.38938,2453.740,36.5160
2023-11-26T06:45:49,2420,42.8014,5.9826,13.2975,4.38942,2453.740,36.5160
2023-11-26T06:48:49,2420,42.8014,5.9826,13.2973,4.38945,2453.762,36.5165
2023-11-26T06:51:49,2420,42.8014,5.9826,13.2972,4.38964,2453.725,36.5184
2023-11-26T06:54:50,2420,42.8014,5.9826,13.2970,4.38958,2453.762,36.5179
2023-11-26T06:57:49,2420,42.8014,5.9826,13.2972,4.38954,2453.740,36.5174
2023-11-26T07:00:49,2420,42.8014,5.9826,13.2972,4.38964,2453.740,36.5184
2023-11-26T07:03:49,2420,42.8014,5.9826,13.2970,4.38969,2453.717,36.5190
2023-11-26T07:06:49,2420,42.8014,5.9826,13.2971,4.38965,2453.740,36.5185
2023-11-26T07:09:49,2420,42.8014,5.9826,13.2972,4.38969,2453.725,36.5188
2023-11-26T07:12:49,2420,42.8014,5.9826,13.2972,4.38969,2453.740,36.5188
2023-11-26T07:15:49,2420,42.8014,5.9826,13.2975,4.38970,2453.740,36.5187
2023-11-26T07:18:49,2420,42.8014,5.9826,13.2971,4.38970,2453.717,36.5190
2023-11-26T07:21:49,2420,42.8014,5.9826,13.2973,4.38970,2453.762,36.5189
2023-11-26T07:24:49,2420,42.8014,5.9826,13.2975,4.38985,2453.702,36.5201
2023-11-26T07:27:49,2420,42.8014,5.9826,13.2973,4.38977,2453.762,36.5195
2023-11-26T07:30:49,2420,42.8014,5.9826,13.2973,4.38983,2453.740,36.5201
2023-11-26T07:33:49,2420,42.8014,5.9826,13.2973,4.38971,2453.762,36.5189
2023-11-26T07:36:49,2420,42.8014,5.9826,13.2973,4.38990,2453.717,36.5207
2023-11-26T07:39:49,2420,42.8014,5.9826,13.2974,4.38987,2453.725,36.5203
2023-11-26T07:42:49,2420,42.8014,5.9826,13.2972,4.38989,2453.717,36.5207
2023-11-26T07:45:49,2420,42.8014,5.9826,13.2970,4.38991,2453.740,36.5211
2023-11-26T07:48:49,2420,42.8014,5.9826,13.2971,4.38993,2453.717,36.5211
2023-11-26T07:51:49,2420,42.8014,5.9826,13.2973,4.39011,2453.717,36.5227
2023-11-26T07:54:49,2420,42.8014,5.9826,13.2973,4.38999,2453.762,36.5215
2023-11-26T07:57:49,2420,42.8014,5.9826,13.2973,4.39004,2453.740,36.5220
2023-11-26T08:00:49,2420,42.8014,5.9826,13.2970,4.38992,2453.717,36.5211
2023-11-26T08:03:49,2420,42.8014,5.9826,13.2972,4.39011,2453.717,36.5228
2023-11-26T08:06:49,2420,42.8014,5.9826,13.2972,4.39000,2453.754,36.5217
2023-11-26T08:09:49,2420,42.8014,5.9826,13.2973,4.39013,2453.717,36.5229
2023-11-26T08:12:49,2420,42.8014,5.9826,13.2971,4.39006,2453.740,36.5224
2023-11-26T08:15:49,2420,42.8014,5.9826,13.2972,4.39011,2453.740,36.5227
2023-11-26T08:18:48,2420,42.8014,5.9826,13.2970,4.39008,2453.695,36.5226
2023-11-26T08:21:49,2420,42.8014,5.9826,13.2973,4.39017,2453.717,36.5232
2023-11-26T08:24:49,2420,42.8014,5.9826,13.2972,4.39031,2453.695,36.5247
2023-11-26T08:27:49,2420,42.8014,5.9826,13.2978,4.39020,2453.717,36.5231
2023-11-26T08:30:49,2420,42.8014,5.9826,13.2969,4.39024,2453.754,36.5242
2023-11-26T08:33:49,2420,42.8014,5.9826,13.2968,4.39041,2453.717,36.5259
2023-11-26T08:36:49,2420,42.8014,5.9826,13.2968,4.39025,2453.717,36.5244
2023-11-26T08:39:49,2420,42.8014,5.9826,13.2970,4.39030,2453.695,36.5248
2023-11-26T08:42:49,2420,42.8014,5.9826,13.2970,4.39043,2453.702,36.5259
2023-11-26T08:45:49,2420,42.8014,5.9826,13.2973,4.39047,2453.695,36.5261
2023-11-26T08:48:49,2420,42.8014,5.9826,13.2972,4.39044,2453.740,36.5259
2023-11-26T08:51:49,2420,42.8014,5.9826,13.2975,4.39051,2453.702,36.5263
2023-11-26T08:54:49,2420,42.8014,5.9826,13.2968,4.39053,2453.717,36.5270
2023-11-26T08:57:50,2420,42.8014,5.9826,13.2969,4.39051,2453.740,36.5267
2023-11-26T09:00:49,2420,42.8014,5.9826,13.2972,4.39055,2453.717,36.5269
2023-11-26T09:03:49,2420,42.8014,5.9826,13.2968,4.39064,2453.695,36.5281
2023-11-26T09:06:49,2420,42.8014,5.9826,13.2974,4.39057,2453.695,36.5269
2023-11-26T09:09:49,2420,42.8014,5.9826,13.2975,4.39062,2453.680,36.5273
2023-11-26T09:12:49,2420,42.8014,5.9826,13.2972,4.39076,2453.717,36.5289
2023-11-26T09:15:49,2420,42.8014,5.9826,13.2971,4.39061,2453.672,36.5275
2023-11-26T09:18:49,2420,42.8014,5.9826,13.2973,4.39068,2453.695,36.5280
2023-11-26T09:21:49,2420,42.8014,5.9826,13.2974,4.39072,2453.680,36.5283
2023-11-26T09:24:49,2420,42.8014,5.9826,13.2974,4.39073,2453.695,36.5284
2023-11-26T09:27:49,2420,42.8014,5.9826,13.2970,4.39085,2453.717,36.5298
2023-11-26T09:30:49,2420,42.8014,5.9826,13.2968,4.39084,2453.695,36.5299
2023-11-26T09:33:49,2420,42.8014,5.9826,13.2971,4.39092,2453.695,36.5304
2023-11-26T09:36:49,2420,42.8014,5.9826,13.2971,4.39088,2453.695,36.5300
2023-11-26T09:39:49,2420,42.8014,5.9826,13.2971,4.39088,2453.695,36.5301
2023-11-26T09:42:49,2420,42.8014,5.9826,13.2972,4.39115,2453.695,36.5325
2023-11-26T09:45:49,2420,42.8014,5.9826,13.2973,4.39104,2453.657,36.5314
2023-11-26T09:48:49,2420,42.8014,5.9826,13.2972,4.39098,2453.695,36.5309
2023-11-26T09:51:49,2420,42.8014,5.9826,13.2971,4.39106,2453.687,36.5318
2023-11-26T09:54:50,2420,42.8014,5.9826,13.2972,4.39093,2453.672,36.5305
2023-11-26T09:57:49,2420,42.8014,5.9826,13.2975,4.39087,2453.695,36.5296
2023-11-26T10:00:49,2420,42.8014,5.9826,13.2973,4.39109,2453.672,36.5318
2023-11-26T10:03:49,2420,42.8014,5.9826,13.2971,4.39127,2453.695,36.5337
2023-11-26T10:06:49,2420,42.8014,5.9826,13.2970,4.39090,2453.717,36.5304
2023-11-26T10:09:49,2420,42.8014,5.9826,13.2975,4.39114,2453.687,36.5321
2023-11-26T10:12:49,2420,42.8014,5.9826,13.2972,4.39117,2453.695,36.5327
2023-11-26T10:15:49,2420,42.8014,5.9826,13.2974,4.39103,2453.672,36.5312
2023-11-26T10:18:49,2420,42.8014,5.9826,13.2973,4.39122,2453.680,36.5331
2023-11-26T10:21:49,2420,42.8014,5.9826,13.2972,4.39134,2453.672,36.5343
2023-11-26T10:24:49,2420,42.8014,5.9826,13.2972,4.39112,2453.649,36.5322
2023-11-26T10:27:49,2420,42.8014,5.9826,13.2973,4.39109,2453.695,36.5318
2023-11-26T10:30:49,2420,42.8014,5.9826,13.2975,4.39117,2453.672,36.5325
2023-11-26T10:33:49,2420,42.8014,5.9826,13.2971,4.39126,2453.672,36.5336
2023-11-26T10:36:49,2420,42.8014,5.9826,13.2972,4.39158,2453.687,36.5365
2023-11-26T10:39:49,2420,42.8014,5.9826,13.2969,4.39175,2453.672,36.5384
2023-11-26T10:42:49,2420,42.8014,5.9826,13.2973,4.39158,2453.649,36.5365
2023-11-26T10:45:49,2420,42.8014,5.9826,13.2972,4.39160,2453.649,36.5368
2023-11-26T10:48:49,2420,42.8014,5.9826,13.2970,4.39181,2453.672,36.5389
2023-11-26T10:51:49,2420,42.8014,5.9826,13.2970,4.39191,2453.672,36.5397
2023-11-26T10:54:49,2420,42.8014,5.9826,13.2975,4.39180,2453.627,36.5383
2023-11-26T10:57:49,2420,42.8014,5.9826,13.2973,4.39198,2453.649,36.5401
2023-11-26T11:00:49,2420,42.8014,5.9826,13.2973,4.39194,2453.612,36.5399
2023-11-26T11:03:49,2420,42.8014,5.9826,13.2976,4.39178,2453.649,36.5380
2023-11-26T11:06:49,2420,42.8014,5.9826,13.2974,4.39210,2453.649,36.5412
2023-11-26T11:09:49,2420,42.8014,5.9826,13.2971,4.39207,2453.635,36.5412
2023-11-26T11:12:49,2420,42.8014,5.9826,13.2973,4.39196,2453.627,36.5400
2023-11-26T11:15:49,2420,42.8014,5.9826,13.2976,4.39182,2453.627,36.5384
2023-11-26T11:18:49,2420,42.8014,5.9826,13.2974,4.39191,2453.627,36.5395
2023-11-26T11:21:50,2420,42.8014,5.9826,13.2970,4.39224,2453.604,36.5429
2023-11-26T11:24:49,2420,42.8014,5.9826,13.2974,4.39212,2453.664,36.5414
2023-11-26T11:27:49,2420,42.8014,5.9826,13.2975,4.39203,2453.649,36.5404
2023-11-26T11:30:49,2420,42.8014,5.9826,13.2970,4.39196,2453.664,36.5403
2023-11-26T11:33:49,2420,42.8014,5.9826,13.2975,4.39197,2453.649,36.5399
2023-11-26T11:36:49,2420,42.8014,5.9826,13.2973,4.39257,2453.627,36.5457
2023-11-26T11:39:49,2420,42.8014,5.9826,13.2974,4.39244,2453.604,36.5444
2023-11-26T11:42:49,2420,42.8014,5.9826,13.2976,4.39224,2453.612,36.5423
2023-11-26T11:45:49,2420,42.8014,5.9826,13.2974,4.39231,2453.612,36.5432
2023-11-26T11:48:50,2420,42.8014,5.9826,13.2972,4.39257,2453.627,36.5459
2023-11-26T11:51:49,2420,42.8014,5.9826,13.2972,4.39245,2453.604,36.5447
2023-11-26T11:54:49,2420,42.8014,5.9826,13.2974,4.39275,2453.612,36.5474
2023-11-26T11:57:49,2420,42.8014,5.9826,13.2973,4.39278,2453.627,36.5476
2023-11-26T12:00:49,2420,42.8014,5.9826,13.2973,4.39248,2453.627,36.5448
2023-11-26T12:03:49,2420,42.8014,5.9826,13.2975,4.39269,2453.590,36.5467
2023-11-26T12:06:49,2420,42.8014,5.9826,13.2975,4.39266,2453.604,36.5464
2023-11-26T12:09:49,2420,42.8014,5.9826,13.2970,4.39287,2453.627,36.5488
2023-11-26T12:12:49,2420,42.8014,5.9826,13.2973,4.39284,2453.604,36.5482
2023-11-26T12:15:49,2420,42.8014,5.9826,13.2973,4.39254,2453.627,36.5454
2023-11-26T12:18:49,2420,42.8014,5.9826,13.2973,4.39305,2453.604,36.5503
2023-11-26T12:21:49,2420,42.8014,5.9826,13.2970,4.39284,2453.604,36.5485
2023-11-26T12:24:49,2420,42.8014,5.9826,13.2976,4.39259,2453.627,36.5456
2023-11-26T12:27:49,2420,42.8014,5.9826,13.2970,4.39309,2453.604,36.5508
2023-11-26T12:30:49,2420,42.8014,5.9826,13.2975,4.39311,2453.612,36.5506
2023-11-26T12:33:49,2420,42.8014,5.9826,13.2977,4.39302,2453.627,36.5495
2023-11-26T12:36:49,2420,42.8014,5.9826,13.2975,4.39320,2453.582,36.5515
2023-11-26T12:39:49,2420,42.8014,5.9826,13.2973,4.39325,2453.604,36.5521
2023-11-26T12:42:49,2420,42.8014,5.9826,13.2966,4.39310,2453.635,36.5513
2023-11-26T12:45:49,2420,42.8014,5.9826,13.2977,4.39332,2453.604,36.5524
2023-11-26T12:48:49,2420,42.8014,5.9826,13.2970,4.39323,2453.619,36.5521
2023-11-26T12:51:49,2420,42.8014,5.9826,13.2973,4.39344,2453.604,36.5539
2023-11-26T12:54:49,2420,42.8014,5.9826,13.2968,4.39336,2453.567,36.5537
2023-11-26T12:57:50,2420,42.8014,5.9826,13.2970,4.39327,2453.567,36.5526
2023-11-26T13:00:49,2420,42.8014,5.9826,13.2973,4.39337,2453.604,36.5532
2023-11-26T13:03:49,2420,42.8014,5.9826,13.2973,4.39349,2453.604,36.5544
2023-11-26T13:06:49,2420,42.8014,5.9826,13.2972,4.39323,2453.604,36.5521
2023-11-26T13:09:49,2420,42.8014,5.9826,13.2975,4.39370,2453.604,36.5561
2023-11-26T13:12:49,2420,42.8014,5.9826,13.2976,4.39360,2453.604,36.5550
2023-11-26T13:15:49,2420,42.8014,5.9826,13.2974,4.39366,2453.604,36.5559
2023-11-26T13:18:49,2420,42.8014,5.9826,13.2975,4.39365,2453.567,36.5557
2023-11-26T13:21:49,2420,42.8014,5.9826,13.2970,4.39376,2453.604,36.5571
2023-11-26T13:24:49,2420,42.8014,5.9826,13.2975,4.39376,2453.627,36.5567
2023-11-26T13:27:49,2420,42.8014,5.9826,13.2972,4.39368,2453.627,36.5563
2023-11-26T13:30:49,2420,42.8014,5.9826,13.2970,4.39381,2453.582,36.5577
2023-11-26T13:33:49,2420,42.8014,5.9826,13.2969,4.39352,2453.604,36.5550
2023-11-26T13:36:49,2420,42.8014,5.9826,13.2974,4.39381,2453.582,36.5572
2023-11-26T13:39:49,2420,42.8014,5.9826,13.2970,4.39399,2453.604,36.5593
2023-11-26T13:42:49,2420,42.8014,5.9826,13.2975,4.39392,2453.582,36.5582
2023-11-26T13:45:49,2420,42.8014,5.9826,13.2971,4.39395,2453.604,36.5588
2023-11-26T13:48:49,2420,42.8014,5.9826,13.2972,4.39394,2453.582,36.5587
2023-11-26T13:51:49,2420,42.8014,5.9826,13.2973,4.39395,2453.567,36.5587
2023-11-26T13:54:49,2420,42.8014,5.9826,13.2968,4.39387,2453.627,36.5584
2023-11-26T13:57:49,2420,42.8014,5.9826,13.2971,4.39394,2453.604,36.5588
2023-11-26T14:00:49,2420,42.8014,5.9826,13.2970,4.39411,2453.604,36.5605
2023-11-26T14:03:49,2420,42.8014,5.9826,13.2970,4.39410,2453.582,36.5603
2023-11-26T14:06:49,2420,42.8014,5.9826,13.2975,4.39410,2453.582,36.5599
2023-11-26T14:09:49,2420,42.8014,5.9826,13.2972,4.39382,2453.604,36.5575
2023-11-26T14:12:49,2420,42.8014,5.9826,13.2973,4.39430,2453.604,36.5619
2023-11-26T14:15:49,2420,42.8014,5.9826,13.2970,4.39420,2453.604,36.5612
2023-11-26T14:18:49,2420,42.8014,5.9826,13.2971,4.39407,2453.604,36.5600
2023-11-26T14:21:49,2420,42.8014,5.9826,13.2971,4.39442,2453.627,36.5632
2023-11-26T14:24:49,2420,42.8014,5.9826,13.2969,4.39428,2453.627,36.5621
2023-11-26T14:27:49,2420,42.8014,5.9826,13.2972,4.39440,2453.627,36.5630
2023-11-26T14:30:49,2420,42.8014,5.9826,13.2970,4.39410,2453.627,36.5603
2023-11-26T14:33:49,2420,42.8014,5.9826,13.2970,4.39443,2453.635,36.5634
2023-11-26T14:36:49,2420,42.8014,5.9826,13.2973,4.39444,2453.627,36.5632
2023-11-26T14:39:49,2420,42.8014,5.9826,13.2966,4.39422,2453.627,36.5619
2023-11-26T14:42:49,2420,42.8014,5.9826,13.2969,4.39457,2453.590,36.5649
2023-11-26T14:45:49,2420,42.8014,5.9826,13.2970,4.39436,2453.627,36.5628
2023-11-26T14:48:49,2420,42.8014,5.9826,13.2978,4.39455,2453.627,36.5638
2023-11-26T14:51:49,2420,42.8014,5.9826,13.2974,4.39458,2453.635,36.5645
2023-11-26T14:54:49,2420,42.8014,5.9826,13.2973,4.39432,2453.649,36.5621
2023-11-26T14:57:49,2420,42.8014,5.9826,13.2977,4.39469,2453.612,36.5652
2023-11-26T15:00:49,2420,42.8014,5.9826,13.2975,4.39442,2453.604,36.5629
2023-11-26T15:03:49,2420,42.8014,5.9826,13.2970,4.39476,2453.604,36.5664
2023-11-26T15:06:49,2420,42.8014,5.9826,13.2970,4.39468,2453.627,36.5657
2023-11-26T15:09:49,2420,42.8014,5.9826,13.2971,4.39463,2453.627,36.5652
2023-11-26T15:12:49,2420,42.8014,5.9826,13.2970,4.39489,2453.649,36.5677
2023-11-26T15:15:49,2420,42.8014,5.9826,13.2968,4.39482,2453.672,36.5672
2023-11-26T15:18:49,2420,42.8014,5.9826,13.2970,4.39492,2453.635,36.5680
2023-11-26T15:21:49,2420,42.8014,5.9826,13.2973,4.39473,2453.649,36.5659
2023-11-26T15:24:49,2420,42.8014,5.9826,13.2970,4.39468,2453.627,36.5658
2023-11-26T15:27:49,2420,42.8014,5.9826,13.2971,4.39485,2453.627,36.5672
2023-11-26T15:30:49,2420,42.8014,5.9826,13.2969,4.39479,2453.672,36.5669
2023-11-26T15:33:49,2420,42.8014,5.9826,13.2972,4.39497,2453.627,36.5683
2023-11-26T15:36:49,2420,42.8014,5.9826,13.2969,4.39493,2453.649,36.5682
2023-11-26T15:39:49,2420,42.8014,5.9826,13.2968,4.39490,2453.635,36.5680
2023-11-26T15:42:49,2420,42.8014,5.9826,13.2969,4.39504,2453.649,36.5692
2023-11-26T15:45:49,2420,42.8014,5.9826,13.2972,4.39522,2453.672,36.5706
2023-11-26T15:48:50,2420,42.8014,5.9826,13.2973,4.39523,2453.695,36.5706
2023-11-26T15:51:49,2420,42.8014,5.9826,13.2967,4.39508,2453.695,36.5697
2023-11-26T15:54:49,2420,42.8014,5.9826,13.2970,4.39499,2453.649,36.5686
2023-11-26T15:57:49,2420,42.8014,5.9826,13.2970,4.39516,2453.695,36.5702
2023-11-26T16:00:49,2420,42.8014,5.9826,13.2973,4.39528,2453.695,36.5711
2023-11-26T16:03:49,2420,42.8014,5.9826,13.2970,4.39546,2453.695,36.5730